Main page
METAR-TAF:

METAR-TAF

Airports :

Boulmer, England

RAF Boulmer

latitude: 55-25-19N, longitude: 1-36-12W, elevation: 24 m

Current weather observation

The report was made 1 hour and 2 minutes ago, at 16:50 UTC
Wind 6 kt from the East/Southeast
Temperature 8°C
Humidity 76%
Pressure 1015 hPa
Visibility 10 km or more

METAR: EGQM 281650Z AUTO 11006KT 9999 BKN060/// 08/04 Q1015

Time: 18:52 (17:52 UTC)


TAF: missing

Weather observations and forecasts of more than 4000 airports (METAR and TAF reports).

The available stations are represented by yellow and red dots on the map.

Hover mouse over dot to see the name of the station.

Then click to see weather observations and forecasts.

To change the map : click on the green buttons with a black cross to zoom in, on the green button with a dash to zoom out, or on the green arrows for adjacent maps.


METAR-TAF: